Latest Coastal Weather Observations for Williamtown

IDN60701

Issued at 10:51 pm EDT Sunday 19 February 2017 (issued every 10 minutes, with the page automatically refreshed every 10 minutes)

About coastal observations | Map of coastal stations | Coastal observations for NSW | Marine services | Other Formats
Station Details ID: 061078 Name: WILLIAMTOWN RAAF Lat: -32.79 Lon: 151.84 Height: 7.5 m
Data from the previous 72 hours. | See also: Recent months at Williamtown
Date/Time
EDT
Temp
°C
Wind Pressure Rain since
9am
mm
Weather Cloud Vis
km
Sea
Height
m
Swell
Dir  Spd
kts
Gust
kts
hPa Trend Height
m
Period
s
Dir
19/10:30pm 19.5 - - - 1005.4 - 0.8 - - 10 - - - -
19/10:00pm 19.7 - - - 1005.6 - 0.8 - - 10 - - - -
19/09:30pm 19.9 - - - 1005.1 - 0.8 - - 10 - - - -
19/09:00pm 20.2 - - - 1004.8 F 0.8 - Cloudy 10 - - - -
19/08:30pm 20.4 - - - 1004.9 - 0.8 - - 10 - - - -
19/08:00pm 20.4 - - - 1005.6 - 0.8 - Partly cloudy 10 - - - -
19/07:56pm 20.4 - - - 1005.7 - 0.8 - Partly cloudy 10 - - - -
19/07:30pm 20.4 - - - 1005.7 - 0.8 - Cloudy 10 - - - -
19/07:00pm 20.5 - - - 1005.3 - 0.8 - Partly cloudy 10 - - - -
19/06:30pm 20.8 - - - 1005.2 - 0.8 - Cloudy 10 - - - -
19/06:04pm 20.7 - - - 1005.2 - 0.8 - Partly cloudy 10 - - - -
19/06:00pm 20.7 - - - 1005.3 F 0.8 Recent precip. Cloudy 10 - - - -
19/05:30pm 21.3 - - - 1005.5 - 0.6 - - 10 - - - -
19/05:00pm 21.0 - - - 1005.3 - 0.6 - Partly cloudy 10 - - - -
19/04:30pm 20.7 - - - 1005.8 - 0.6 - Partly cloudy 10 - - - -
19/04:00pm 21.1 - - - 1006.1 - 0.6 - Cloudy 10 - - - -
19/03:30pm 20.8 - - - 1005.6 - 0.6 - Cloudy 10 - - - -
19/03:00pm 20.6 - - - 1006.7 R 0.6 Rain Cloudy 10 - - - -
19/02:30pm 20.9 - - - 1006.4 - 0.2 - Partly cloudy 10 - - - -
19/02:00pm 21.9 - - - 1007.1 - 0.0 - Cloudy 10 - - - -
19/01:30pm 22.3 - - - 1007.1 - 0.0 - Cloudy 10 - - - -
19/01:00pm 22.0 - - - 1007.5 - 0.0 - Partly cloudy 10 - - - -
19/12:30pm 21.8 - - - 1007.6 - 0.0 - Cloudy 10 - - - -
19/12:00pm 21.6 - - - 1008.0 R 0.0 Drizzle Cloudy 10 - - - -
19/11:30am 21.0 - - - 1008.4 - 0.0 - Cloudy 10 - - - -
19/11:00am 20.8 - - - 1008.4 - 0.0 - Cloudy 10 - - - -
19/10:30am 20.9 - - - 1008.2 - 0.0 - Cloudy 10 - - - -
19/10:00am 21.1 - - - 1008.2 - 0.0 - Partly cloudy 10 - - - -
19/09:30am 21.1 - - - 1007.9 - 0.0 - Partly cloudy 10 - - - -
19/09:00am 21.1 - - - 1007.8 R 12.8 Rain Cloudy 10 - - - -
19/08:55am 21.0 - - - 1007.8 - 12.8 - Partly cloudy 10 - - - -
19/08:30am 20.9 - - - 1007.7 - 12.8 - Partly cloudy 10 - - - -
19/08:25am 21.0 - - - 1008.1 - 12.8 - Partly cloudy 10 - - - -
19/08:00am 20.8 - - - 1007.7 - 12.8 - Partly cloudy 10 - - - -
19/07:30am 20.8 - - - 1007.3 - 12.8 - Partly cloudy 10 - - - -
19/07:00am 20.8 - - - 1007.0 - 12.8 - Partly cloudy 10 - - - -
19/06:39am 21.1 - - - 1006.8 - 12.8 - Partly cloudy 10 - - - -
19/06:30am 21.1 - - - 1006.6 - 12.8 - Partly cloudy 10 - - - -
19/06:17am 21.1 - - - 1006.5 - 12.8 - Partly cloudy 10 - - - -
19/06:00am 21.2 - - - 1006.4 R 12.8 - Cloudy 10 - - - -
19/05:30am 21.9 - - - 1006.2 - 12.8 - Partly cloudy 10 - - - -
19/05:00am 22.2 - - - 1006.0 - 12.8 - Partly cloudy 10 - - - -
19/04:30am 22.3 - - - 1005.9 - 12.8 - Partly cloudy 10 - - - -
19/04:29am 22.3 - - - 1005.9 - 12.8 - Partly cloudy 10 - - - -
19/04:00am 22.6 - - - 1005.6 - 12.8 - Partly cloudy 10 - - - -
19/03:53am 22.7 - - - 1005.5 - 12.8 - Partly cloudy 10 - - - -
19/03:42am 22.9 - - - 1005.5 - 12.8 - Partly cloudy 10 - - - -
19/03:30am 23.1 - - - 1005.3 - 12.8 - Partly cloudy 10 - - - -
19/03:03am 23.0 - - - 1005.3 - 12.8 - Partly cloudy 10 - - - -
19/03:00am 23.0 - - - 1005.3 R 12.8 - Cloudy 10 - - - -
19/02:30am 23.0 - - - 1005.0 - 12.8 - Partly cloudy 10 - - - -
19/02:25am 23.2 - - - 1005.1 - 12.8 - Partly cloudy 10 - - - -
19/02:00am 22.9 - - - 1004.9 - 12.8 - Cloudy 10 - - - -
19/01:30am 22.9 - - - 1004.8 - 12.8 - Partly cloudy 10 - - - -
19/01:00am 23.2 - - - 1005.0 - 12.8 - Partly cloudy 10 - - - -
19/12:30am 23.6 - - - 1004.6 - 12.8 - Cloudy 10 - - - -
19/12:00am 23.4 - - - 1004.6 R 12.8 - Cloudy 10 - - - -
 
Date/Time
EDT
Temp
°C
Wind Pressure Rain since
9am
mm
Weather Cloud Vis
km
Sea
Height
m
Swell
Dir  Spd
kts
Gust
kts
hPa Trend Height
m
Period
s
Dir
18/11:55pm 23.1 - - - 1004.6 - 12.8 - Partly cloudy 10 - - - -
18/11:30pm 22.6 - - - 1004.6 - 12.8 - Partly cloudy 10 - - - -
18/11:00pm 22.8 - - - 1004.2 - 12.8 - Partly cloudy 10 - - - -
18/10:30pm 22.9 - - - 1004.5 - 12.8 - Partly cloudy 10 - - - -
18/10:00pm 23.1 - - - 1005.4 - 12.8 - Cloudy 10 - - - -
18/09:30pm 22.8 - - - 1004.4 - 12.8 - - 10 - - - -
18/09:00pm 22.9 - - - 1003.7 R 12.8 - Mostly clear 10 - - - -
18/08:30pm 23.0 - - - 1003.0 - 12.8 - - 10 - - - -
18/08:00pm 22.7 SW 8 12 1002.8 - 12.8 - - 10 - - - -
18/07:30pm 23.4 S 13 18 1002.1 - 12.8 - - 10 - - - -
18/07:00pm 24.3 SE 6 10 1001.8 - 12.8 - - 10 - - - -
18/06:39pm 22.9 ENE 16 26 1001.5 - 12.8 - Partly cloudy 10 - - - -
18/06:30pm 22.4 E 17 25 1001.0 - 12.8 - Partly cloudy 7 - - - -
18/06:26pm 22.4 ENE 17 27 1000.8 - 12.8 - Partly cloudy 3 - - - -
18/06:22pm 23.8 N 19 34 1001.2 - 12.2 - Partly cloudy 1 - - - -
18/06:17pm 23.0 WNW 19 34 1003.3 - 9.4 - Partly cloudy 1 - - - -
18/06:16pm 21.9 W 20 34 1003.9 - 8.4 - Partly cloudy 1 - - - -
18/06:13pm 22.6 WSW 20 30 1004.3 - 3.8 - Partly cloudy 3 - - - -
18/06:11pm 23.4 WSW 19 26 1004.0 - 1.8 - Partly cloudy 6 - - - -
18/06:00pm 24.6 SSW 14 23 1002.0 F 0.0 Rain Cloudy 10 - - - -
18/05:30pm 29.6 ESE 7 9 1001.4 - 0.0 - - 10 - - - -
18/05:00pm 30.9 E 9 15 1000.4 - 0.0 - - 10 - - - -
18/04:30pm 32.1 ENE 12 16 1001.1 - 0.0 - - 10 - - - -
18/04:00pm 33.0 E 9 15 1002.1 - 0.0 - - 10 - - - -
18/03:30pm 32.5 ESE 11 14 1002.6 - 0.0 - - 10 - - - -
18/03:00pm 32.6 E 12 16 1002.9 F 0.0 - - 10 - - - -
18/02:30pm 32.3 E 13 17 1003.2 - 0.0 - - 10 - - - -
18/02:00pm 32.7 E 12 15 1003.7 - 0.0 - - 10 - - - -
18/01:30pm 32.4 ENE 12 16 1004.0 - 0.0 - - 10 - - - -
18/01:00pm 32.7 ENE 13 17 1004.2 - 0.0 - - 10 - - - -
18/12:30pm 31.9 ENE 12 15 1004.8 - 0.0 - - 10 - - - -
18/12:00pm 32.2 NE 4 7 1005.2 F 0.0 - - 10 - - - -
18/11:30am 30.9 N 6 9 1005.6 - 0.0 - - 10 - - - -
18/11:00am 30.4 NNW 9 12 1005.8 - 0.0 - - 10 - - - -
18/10:30am 30.2 NW 10 15 1005.9 - 0.0 - - 10 - - - -
18/10:00am 29.0 NW 10 14 1005.9 - 0.0 - - 10 - - - -
18/09:30am 27.7 NW 11 16 1006.0 - 0.0 - - 10 - - - -
18/09:00am 26.1 NW 10 15 1006.2 F 15.6 - - 10 - - - -
18/08:30am 24.9 NW 8 11 1006.2 - 15.6 - - 10 - - - -
18/08:00am 23.8 NNW 6 9 1006.2 - 15.6 - - 10 - - - -
18/07:30am 22.3 NNW 6 7 1006.1 - 15.6 - - 10 - - - -
18/07:00am 20.9 NW 2 5 1005.9 - 15.6 - - 10 - - - -
18/06:30am 20.3 WNW 6 8 1005.7 - 15.6 - - 10 - - - -
18/06:00am 20.3 WNW 6 7 1005.4 F 15.6 - Mostly clear 10 - - - -
18/05:30am 20.8 WNW 10 14 1005.5 - 15.6 - - 10 - - - -
18/05:00am 21.2 NW 11 14 1005.2 - 15.6 - - 10 - - - -
18/04:30am 21.4 NW 11 15 1005.5 - 15.6 - - 10 - - - -
18/04:00am 21.6 NW 9 11 1005.7 - 15.6 - - 10 - - - -
18/03:30am 21.3 NW 6 8 1006.0 - 15.6 - Partly cloudy 10 - - - -
18/03:00am 21.5 NW 6 7 1006.4 F 15.6 - Partly cloudy 10 - - - -
18/02:30am 22.0 NNW 7 9 1006.9 - 15.6 - - 10 - - - -
18/02:00am 21.7 NNE 8 10 1007.4 - 15.6 - Partly cloudy 10 - - - -
18/01:30am 20.9 N 6 8 1007.9 - 15.6 - Partly cloudy 10 - - - -
18/01:00am 21.3 NE 5 7 1008.5 - 15.6 - Partly cloudy 10 - - - -
18/12:30am 21.2 ENE 6 7 1009.0 - 15.6 - Partly cloudy 10 - - - -
18/12:00am 21.3 E 6 8 1009.9 R 15.6 Rain Partly cloudy 9 - - - -
 
Date/Time
EDT
Temp
°C
Wind Pressure Rain since
9am
mm
Weather Cloud Vis
km
Sea
Height
m
Swell
Dir  Spd
kts
Gust
kts
hPa Trend Height
m
Period
s
Dir
17/11:30pm 21.6 ENE 5 7 1010.4 - 15.6 - Partly cloudy 10 - - - -
17/11:00pm 21.8 SE 10 13 1010.5 - 15.6 - Partly cloudy 10 - - - -
17/10:30pm 22.8 SSE 6 8 1010.8 - 14.8 - Partly cloudy 10 - - - -
17/10:00pm 23.5 N 7 10 1010.0 - 14.8 - - 10 - - - -
17/09:30pm 23.9 NNE 9 14 1009.1 - 14.8 - - 10 - - - -
17/09:00pm 22.9 N 8 10 1009.4 F 14.8 Rain Partly cloudy 10 - - - -
17/08:30pm 22.5 NNW 11 20 1009.5 - 14.8 - Partly cloudy 10 - - - -
17/08:00pm 22.6 NNW 9 14 1009.4 - 14.8 - Partly cloudy 10 - - - -
17/07:30pm 23.0 NNE 5 7 1008.0 - 14.8 - - 10 - - - -
17/07:00pm 22.7 E 5 7 1007.9 - 14.8 - - 10 - - - -
17/06:39pm 22.6 NE 12 22 1008.7 - 14.8 - Partly cloudy 10 - - - -
17/06:30pm 21.8 E 18 26 1008.2 - 14.8 - Partly cloudy 7 - - - -
17/06:20pm 21.1 NNE 19 28 1008.6 - 13.6 - Partly cloudy 2 - - - -
17/06:16pm 21.1 NNW 21 36 1011.0 - 10.0 - Partly cloudy 2 - - - -
17/06:14pm 21.7 NNW 21 36 1011.5 - 8.4 - Partly cloudy 2 - - - -
17/06:08pm 21.7 WNW 21 36 1011.7 - 5.4 - Partly cloudy 3 - - - -
17/06:03pm 21.7 WSW 23 40 1011.4 - 2.2 - Partly cloudy 5 - - - -
17/06:00pm 22.1 SW 24 40 1010.5 R 1.6 Showers Cloudy 6 - - - -
17/05:59pm 22.3 SW 25 40 1010.0 - 1.4 - Partly cloudy 6 - - - -
17/05:49pm 26.2 SSW 11 31 1008.0 - 0.4 - Partly cloudy 2 - - - -
17/05:48pm 26.7 SSW 9 24 1007.9 - 0.4 - Partly cloudy 2 - - - -
17/05:40pm 29.5 ESE 6 10 1006.7 - 0.4 - Partly cloudy 2 - - - -
17/05:30pm 29.8 E 8 13 1006.2 - 0.4 - Partly cloudy 10 - - - -
17/05:00pm 31.2 ENE 14 20 1005.7 - 0.4 - - 10 - - - -
17/04:30pm 32.7 NE 14 20 1005.7 - 0.4 - - 10 - - - -
17/04:00pm 33.1 ENE 17 21 1005.1 - 0.4 - - 10 - - - -
17/03:30pm 33.7 ENE 14 18 1006.0 - 0.4 - - 10 - - - -
17/03:00pm 33.9 ENE 13 17 1006.6 F 0.4 Rain - 10 - - - -
17/02:30pm 33.3 ENE 13 17 1007.3 - 0.4 Thunder Mostly clear 10 - - - -
17/02:00pm 32.3 ENE 10 15 1008.1 - 0.4 - Mostly clear 10 - - - -
17/01:30pm 34.7 E 9 14 1008.5 - 0.4 - Partly cloudy 10 - - - -
17/01:00pm 31.9 E 7 10 1009.1 - 0.2 - Partly cloudy 10 - - - -
17/12:30pm 29.9 SE 9 11 1009.8 - 0.2 - Partly cloudy 10 - - - -
17/12:18pm 28.3 SE 9 13 1010.1 - 0.2 Thunder Mostly clear 10 - - - -
17/12:00pm 29.1 WSW 4 6 1010.2 F 0.2 Rain Mostly cloudy 10 - - - -
17/11:30am 27.2 NNW 5 10 1010.4 - 0.2 Showers Mostly clear 10 - - - -
17/11:00am 29.5 WSW 5 7 1011.1 - 0.0 - Mostly clear 10 - - - -
17/10:30am 29.7 NNW 7 13 1010.4 - 0.0 Showers Mostly clear 10 - - - -
17/10:00am 30.1 N 6 7 1010.4 - 0.0 - Mostly clear 10 - - - -
17/09:30am 27.8 NNE 8 10 1010.4 - 0.0 - - 10 - - - -
17/09:00am 26.5 NNE 7 9 1010.5 F 0.0 - Mostly clear 10 - - - -
17/08:30am 26.2 NNE 6 8 1010.4 - 0.0 - - 10 - - - -
17/08:00am 24.9 NNE 6 10 1010.4 - 0.0 - - 10 - - - -
17/07:30am 24.1 NNE 6 9 1010.1 - 0.0 - - 10 - - - -
17/07:00am 23.4 N 5 7 1009.8 - 0.0 - - 10 - - - -
17/06:30am 23.1 NNE 6 8 1009.5 - 0.0 - - 10 - - - -
17/06:00am 23.3 NNE 5 8 1009.4 R 0.0 - Mostly clear 10 - - - -
17/05:30am 23.5 NNE 7 10 1009.1 - 0.0 - - 10 - - - -
17/05:00am 23.6 NNE 7 9 1008.9 - 0.0 - - 10 - - - -
17/04:30am 23.8 NE 8 13 1008.6 - 0.0 - - 10 - - - -
17/04:00am 24.0 NNE 7 11 1008.8 - 0.0 - - 10 - - - -
17/03:30am 24.2 NNE 9 13 1008.8 - 0.0 - - 10 - - - -
17/03:00am 24.2 NE 9 12 1008.9 F 0.0 - - 10 - - - -
17/02:30am 24.2 NE 8 13 1009.1 - 0.0 - - 10 - - - -
17/02:00am 24.4 NE 8 11 1009.4 - 0.0 - - 10 - - - -
17/01:30am 24.7 NE 9 13 1009.4 - 0.0 - - 10 - - - -
17/01:00am 24.9 NE 9 13 1009.6 - 0.0 - - 10 - - - -
17/12:30am 25.2 NE 9 13 1009.6 - 0.0 - - 10 - - - -
17/12:00am 25.3 NE 10 15 1009.8 F 0.0 - - 10 - - - -
 
Date/Time
EDT
Temp
°C
Wind Pressure Rain since
9am
mm
Weather Cloud Vis
km
Sea
Height
m
Swell
Dir  Spd
kts
Gust
kts
hPa Trend Height
m
Period
s
Dir
16/11:30pm 25.6 NE 7 11 1010.1 - 0.0 - - 10 - - - -
16/11:00pm 26.0 NNE 8 13 1010.4 - 0.0 - - 10 - - - -

Other Formats:

Comma delimited format used in spreadsheet applications
http://www.bom.gov.au/fwo/IDN60701/IDN60701.94776.axf

JavaScript Object Notation format (JSON) in row-major order
http://www.bom.gov.au/fwo/IDN60701/IDN60701.94776.json